EW8032 Weather Reports


Display with metric or nautical units.
time (UTC)temp
F
wind
direction
speed
MPH
gust
MPH
rain 1hr
in
rain 24hr
in
rain mn
in
humidity
%
barometer
mb
20260906190010 82 262 0.0 2.0 0.00 0.00 0.00 59 1021.4
20260906185857 83 262 1.0 2.0 0.00 0.00 0.00 60 1021.4
20260906185730 83 262 1.0 2.0 0.00 0.00 0.00 57 1021.4
20260906185657 83 262 1.0 2.0 0.00 0.00 0.00 56 1021.4
20260906185535 83 262 0.0 1.0 0.00 0.00 0.00 56 1021.4
20260906185430 83 262 0.0 1.0 0.00 0.00 0.00 54 1021.3
20260906185351 83 262 0.0 2.0 0.00 0.00 0.00 54 1021.3
20260906185022 83 262 0.0 2.0 0.00 0.00 0.00 55 1021.4
20260906184907 83 262 1.0 2.0 0.00 0.00 0.00 54 1021.4
20260906184850 83 262 1.0 2.0 0.00 0.00 0.00 54 1021.3
20260906184740 83 262 1.0 2.0 0.00 0.00 0.00 54 1021.4
20260906184615 83 262 1.0 2.0 0.00 0.00 0.00 53 1021.4
20260906184527 83 262 1.0 2.0 0.00 0.00 0.00 53 1021.3
20260906184512 83 262 1.0 2.0 0.00 0.00 0.00 53 1021.2
20260906184420 83 262 1.0 2.0 0.00 0.00 0.00 53 1021.3
20260906184304 84 262 1.0 2.0 0.00 0.00 0.00 53 1021.1
20260906184229 84 262 1.0 3.0 0.00 0.00 0.00 53 1021.1
20260906184146 84 262 1.0 3.0 0.00 0.00 0.00 52 1021.1
20260906183737 84 262 1.0 3.0 0.00 0.00 0.00 52 1021.1
20260906183029 84 262 2.0 3.0 0.00 0.00 0.00 52 1021.0
20260906183008 84 262 2.0 3.0 0.00 0.00 0.00 51 1021.0
20260906182923 84 262 2.0 2.0 0.00 0.00 0.00 52 1021.0
20260906182812 84 262 1.0 2.0 0.00 0.00 0.00 52 1021.0
20260906182630 84 262 0.0 1.0 0.00 0.00 0.00 53 1020.9
20260906182516 85 262 0.0 1.0 0.00 0.00 0.00 54 1020.8
20260906182416 85 262 0.0 1.0 0.00 0.00 0.00 52 1020.8
20260906182348 85 262 0.0 2.0 0.00 0.00 0.00 52 1020.7
20260906182238 85 262 0.0 2.0 0.00 0.00 0.00 52 1020.7
20260906181829 85 262 0.0 2.0 0.00 0.00 0.00 52 1020.7
20260906181809 85 262 0.0 2.0 0.00 0.00 0.00 52 1020.6
20260906181702 86 262 1.0 3.0 0.00 0.00 0.00 52 1020.6
20260906181531 86 262 1.0 3.0 0.00 0.00 0.00 51 1020.6
20260906181506 86 262 1.0 3.0 0.00 0.00 0.00 51 1020.6
20260906181412 86 262 1.0 3.0 0.00 0.00 0.00 50 1020.6
20260906181242 86 262 1.0 3.0 0.00 0.00 0.00 51 1020.5
20260906180922 87 262 2.0 3.0 0.00 0.00 0.00 50 1020.4
20260906180404 87 279 2.0 4.0 0.00 0.00 0.00 48 1020.3
20260906180335 87 279 2.0 4.0 0.00 0.00 0.00 49 1020.3
20260906180224 87 282 1.0 4.0 0.00 0.00 0.00 48 1020.2
20260906180054 87 315 1.0 4.0 0.00 0.00 0.00 48 1020.1
20260906175727 87 315 0.0 4.0 0.00 0.00 0.00 47 1020.1
20260906175607 87 319 0.0 2.0 0.00 0.00 0.00 48 1020.1
20260906175520 87 319 0.0 2.0 0.00 0.00 0.00 48 1020.2
20260906175504 87 319 0.0 2.0 0.00 0.00 0.00 48 1020.1
20260906175409 87 319 1.0 2.0 0.00 0.00 0.00 48 1020.1
20260906175241 87 271 1.0 6.0 0.00 0.00 0.00 48 1020.1
20260906174909 88 271 1.0 6.0 0.00 0.00 0.00 48 1020.0
20260906174805 88 271 1.0 7.0 0.00 0.00 0.00 48 1020.0
20260906174641 88 271 2.0 7.0 0.00 0.00 0.00 48 1020.0
20260906174619 88 271 2.0 7.0 0.00 0.00 0.00 48 1020.1
20260906174521 88 271 2.0 7.0 0.00 0.00 0.00 48 1020.0
20260906174358 88 272 2.0 7.0 0.00 0.00 0.00 48 1020.1
20260906174249 88 272 3.0 9.0 0.00 0.00 0.00 47 1020.1
20260906173830 88 319 3.0 9.0 0.00 0.00 0.00 47 1020.1
20260906173650 89 281 3.0 9.0 0.00 0.00 0.00 47 1020.1
20260906173615 89 299 3.0 9.0 0.00 0.00 0.00 47 1020.1
20260906173454 89 311 3.0 9.0 0.00 0.00 0.00 47 1020.0
20260906173318 89 321 4.0 10.0 0.00 0.00 0.00 46 1020.0
20260906173153 89 298 3.0 15.0 0.00 0.00 0.00 47 1019.9
20260906172749 89 296 4.0 15.0 0.00 0.00 0.00 47 1020.0
20260906172613 89 308 5.0 15.0 0.00 0.00 0.00 47 1019.9
20260906172538 89 297 5.0 15.0 0.00 0.00 0.00 46 1020.0
20260906172443 89 313 8.0 15.0 0.00 0.00 0.00 46 1019.9
20260906172259 89 296 5.0 15.0 0.00 0.00 0.00 46 1019.8
20260906172128 89 310 4.0 12.0 0.00 0.00 0.00 47 1019.9
20260906171724 89 352 4.0 12.0 0.00 0.00 0.00 48 1019.9
20260906171543 89 319 6.0 12.0 0.00 0.00 0.00 48 1019.8
20260906171459 89 294 6.0 12.0 0.00 0.00 0.00 48 1019.8
20260906171357 89 277 7.0 12.0 0.00 0.00 0.00 48 1019.9
20260906170840 89 331 4.0 9.0 0.00 0.00 0.00 49 1019.7
20260906170827 89 325 3.0 9.0 0.00 0.00 0.00 49 1019.7
20260906170651 89 319 4.0 11.0 0.00 0.00 0.00 49 1019.6
20260906170516 89 292 4.0 11.0 0.00 0.00 0.00 49 1019.6
20260906170434 89 263 4.0 11.0 0.00 0.00 0.00 49 1019.6
20260906170311 89 302 6.0 14.0 0.00 0.00 0.00 50 1019.6
20260906170130 89 306 4.0 14.0 0.00 0.00 0.00 50 1019.5
20260906165819 89 283 6.0 14.0 0.00 0.00 0.00 50 1019.6
20260906165639 89 309 7.0 14.0 0.00 0.00 0.00 50 1019.7
20260906165458 89 298 7.0 14.0 0.00 0.00 0.00 49 1019.5
20260906165415 89 300 7.0 15.0 0.00 0.00 0.00 49 1019.5
20260906165314 89 303 6.0 17.0 0.00 0.00 0.00 50 1019.6
20260906164836 89 294 8.0 17.0 0.00 0.00 0.00 50 1019.5
20260906164804 89 286 8.0 17.0 0.00 0.00 0.00 49 1019.5
20260906164625 89 282 9.0 17.0 0.00 0.00 0.00 49 1019.6
20260906164444 89 252 10.0 17.0 0.00 0.00 0.00 49 1019.5
20260906164045 90 277 6.0 16.0 0.00 0.00 0.00 49 1019.4
20260906163531 89 274 9.0 16.0 0.00 0.00 0.00 49 1019.5
20260906163117 89 275 11.0 16.0 0.00 0.00 0.00 49 1019.5
20260906162938 90 275 9.0 16.0 0.00 0.00 0.00 48 1019.5
20260906162846 90 285 9.0 16.0 0.00 0.00 0.00 48 1019.5
20260906162737 90 293 8.0 15.0 0.00 0.00 0.00 48 1019.6
20260906162549 90 304 9.0 15.0 0.00 0.00 0.00 47 1019.5
20260906162411 90 321 8.0 15.0 0.00 0.00 0.00 47 1019.5
20260906162346 90 271 8.0 15.0 0.00 0.00 0.00 47 1019.4
20260906162203 90 296 8.0 14.0 0.00 0.00 0.00 46 1019.4
20260906162026 91 317 10.0 14.0 0.00 0.00 0.00 45 1019.4
20260906161933 91 303 8.0 14.0 0.00 0.00 0.00 45 1019.3
20260906161820 91 318 6.0 15.0 0.00 0.00 0.00 45 1019.4
20260906161636 91 321 5.0 23.0 0.00 0.00 0.00 45 1019.2
20260906160516 91 280 11.0 23.0 0.00 0.00 0.00 45 1019.3
20260906160427 91 271 11.0 23.0 0.00 0.00 0.00 45 1019.2
20260906160312 91 302 12.0 23.0 0.00 0.00 0.00 44 1019.3
20260906160122 92 292 9.0 18.0 0.00 0.00 0.00 44 1019.3
20260906155713 92 303 7.0 18.0 0.00 0.00 0.00 44 1019.2
20260906155538 91 309 10.0 18.0 0.00 0.00 0.00 45 1019.2
20260906155357 91 284 8.0 20.0 0.00 0.00 0.00 44 1019.1
20260906155312 91 261 8.0 20.0 0.00 0.00 0.00 44 1019.1
20260906155159 91 303 11.0 20.0 0.00 0.00 0.00 44 1019.1
20260906155016 91 254 12.0 20.0 0.00 0.00 0.00 43 1019.1
20260906154842 92 291 11.0 20.0 0.00 0.00 0.00 42 1019.0
20260906154430 92 283 15.0 20.0 0.00 0.00 0.00 41 1019.1
20260906153959 92 297 13.0 19.0 0.00 0.00 0.00 41 1019.0
20260906153844 92 265 11.0 19.0 0.00 0.00 0.00 42 1018.9
20260906153701 92 306 13.0 21.0 0.00 0.00 0.00 41 1019.0
20260906153527 92 256 13.0 21.0 0.00 0.00 0.00 41 1019.0
20260906153501 92 292 13.0 21.0 0.00 0.00 0.00 41 1019.0
20260906153312 93 287 10.0 21.0 0.00 0.00 0.00 41 1018.9
20260906153129 93 301 8.0 21.0 0.00 0.00 0.00 42 1018.9
20260906153046 93 290 8.0 21.0 0.00 0.00 0.00 42 1018.9
20260906152928 93 269 15.0 21.0 0.00 0.00 0.00 42 1018.9
20260906152746 93 290 13.0 19.0 0.00 0.00 0.00 43 1019.0
20260906152607 94 264 14.0 19.0 0.00 0.00 0.00 43 1018.8
20260906152540 94 276 14.0 19.0 0.00 0.00 0.00 43 1018.9
20260906152352 94 273 11.0 19.0 0.00 0.00 0.00 42 1018.9
20260906151924 94 285 13.0 19.0 0.00 0.00 0.00 42 1018.9
20260906151418 94 300 11.0 16.0 0.00 0.00 0.00 43 1018.9
20260906151243 94 267 11.0 15.0 0.00 0.00 0.00 43 1018.9
20260906151218 94 260 11.0 15.0 0.00 0.00 0.00 43 1018.8
20260906151038 94 275 9.0 13.0 0.00 0.00 0.00 45 1018.9
20260906150857 93 275 6.0 11.0 0.00 0.00 0.00 45 1018.9
20260906150817 93 281 7.0 11.0 0.00 0.00 0.00 46 1018.9
20260906150656 93 269 8.0 11.0 0.00 0.00 0.00 47 1018.9
20260906150511 93 242 7.0 11.0 0.00 0.00 0.00 47 1019.0
20260906150359 93 261 6.0 11.0 0.00 0.00 0.00 48 1018.9
20260906150316 93 249 6.0 11.0 0.00 0.00 0.00 48 1018.9
20260906150132 93 267 6.0 10.0 0.00 0.00 0.00 48 1018.9
20260906145953 93 296 6.0 10.0 0.00 0.00 0.00 49 1018.9
20260906145547 93 244 4.0 10.0 0.00 0.00 0.00 49 1018.9
20260906145033 92 302 5.0 10.0 0.00 0.00 0.00 49 1019.0
20260906145007 92 313 5.0 10.0 0.00 0.00 0.00 49 1019.1
20260906144445 92 271 5.0 10.0 0.00 0.00 0.00 50 1019.1
20260906144358 92 239 4.0 10.0 0.00 0.00 0.00 50 1019.1
20260906144247 92 288 4.0 10.0 0.00 0.00 0.00 49 1019.1
20260906143717 92 271 6.0 10.0 0.00 0.00 0.00 48 1019.2
20260906143704 92 273 6.0 10.0 0.00 0.00 0.00 49 1019.2
20260906143523 92 271 3.0 7.0 0.00 0.00 0.00 51 1019.1
20260906143337 92 258 1.0 4.0 0.00 0.00 0.00 54 1019.3
20260906143241 92 288 1.0 4.0 0.00 0.00 0.00 53 1019.2
20260906143140 91 288 1.0 4.0 0.00 0.00 0.00 53 1019.3
20260906143022 91 288 2.0 4.0 0.00 0.00 0.00 53 1019.2
20260906142853 91 284 2.0 4.0 0.00 0.00 0.00 52 1019.3
20260906142513 91 290 1.0 4.0 0.00 0.00 0.00 53 1019.2
20260906142046 91 290 1.0 4.0 0.00 0.00 0.00 53 1019.1
20260906142000 91 263 1.0 4.0 0.00 0.00 0.00 53 1019.2
20260906141831 91 263 2.0 4.0 0.00 0.00 0.00 53 1019.2
20260906141419 90 263 2.0 4.0 0.00 0.00 0.00 52 1019.0
20260906141251 90 264 1.0 4.0 0.00 0.00 0.00 54 1019.1
20260906141129 90 264 1.0 4.0 0.00 0.00 0.00 54 1019.3
20260906141027 90 264 1.0 4.0 0.00 0.00 0.00 55 1019.3
20260906141000 90 264 1.0 4.0 0.00 0.00 0.00 55 1019.2
20260906140250 90 264 2.0 3.0 0.00 0.00 0.00 54 1019.3
20260906140129 90 265 1.0 3.0 0.00 0.00 0.00 54 1019.3
20260906140016 90 317 1.0 3.0 0.00 0.00 0.00 54 1019.2
20260906135920 90 5 1.0 3.0 0.00 0.00 0.00 54 1019.2
20260906135833 90 5 1.0 3.0 0.00 0.00 0.00 54 1019.1
20260906135329 89 336 1.0 3.0 0.00 0.00 0.00 54 1019.0
20260906134823 89 292 1.0 5.0 0.00 0.00 0.00 55 1019.1
20260906134718 89 292 1.0 5.0 0.00 0.00 0.00 55 1019.1
20260906134632 89 285 2.0 5.0 0.00 0.00 0.00 55 1019.1
20260906134500 89 281 2.0 5.0 0.00 0.00 0.00 55 1019.1
20260906133731 89 348 2.0 5.0 0.00 0.00 0.00 54 1019.1
20260906133557 88 322 0.0 4.0 0.00 0.00 0.00 55 1019.1
20260906133511 88 322 1.0 4.0 0.00 0.00 0.00 55 1019.1
20260906133047 88 322 2.0 4.0 0.00 0.00 0.00 56 1019.1
20260906132810 88 314 1.0 4.0 0.00 0.00 0.00 56 1019.2
20260906132639 88 259 0.0 1.0 0.00 0.00 0.00 56 1019.2
20260906132528 87 259 0.0 2.0 0.00 0.00 0.00 56 1019.2
20260906132400 87 259 0.0 2.0 0.00 0.00 0.00 57 1019.2
20260906132322 87 259 0.0 4.0 0.00 0.00 0.00 57 1019.2
20260906132149 87 259 0.0 4.0 0.00 0.00 0.00 56 1019.2
20260906132025 87 259 1.0 4.0 0.00 0.00 0.00 56 1019.2
20260906131857 87 259 1.0 4.0 0.00 0.00 0.00 57 1019.2
20260906131437 86 259 1.0 4.0 0.00 0.00 0.00 57 1019.2
20260906131338 86 224 0.0 3.0 0.00 0.00 0.00 61 1019.2
20260906131207 86 76 0.0 3.0 0.00 0.00 0.00 61 1019.2
20260906131013 85 76 1.0 3.0 0.00 0.00 0.00 61 1019.2
20260906130507 85 123 1.0 4.0 0.00 0.00 0.00 61 1019.2
20260906130437 85 123 1.0 4.0 0.00 0.00 0.00 61 1019.2
20260906130245 85 101 1.0 4.0 0.00 0.00 0.00 62 1019.1
20260906130107 85 73 2.0 4.0 0.00 0.00 0.00 62 1019.2
20260906125933 85 76 1.0 4.0 0.00 0.00 0.00 62 1019.1
20260906125828 85 88 2.0 4.0 0.00 0.00 0.00 62 1019.2
20260906125659 85 111 3.0 4.0 0.00 0.00 0.00 61 1019.2
20260906125512 85 110 2.0 4.0 0.00 0.00 0.00 62 1019.2
20260906125443 85 107 2.0 4.0 0.00 0.00 0.00 62 1019.2
20260906125228 85 138 1.0 4.0 0.00 0.00 0.00 62 1019.2
20260906125100 85 146 2.0 4.0 0.00 0.00 0.00 62 1019.2
20260906124934 85 146 2.0 4.0 0.00 0.00 0.00 62 1019.2
20260906124414 84 104 0.0 2.0 0.00 0.00 0.00 63 1019.1
20260906124241 84 34 0.0 4.0 0.00 0.00 0.00 63 1019.1
20260906124221 84 34 0.0 4.0 0.00 0.00 0.00 63 1019.0
20260906124058 84 34 1.0 4.0 0.00 0.00 0.00 63 1019.0
20260906123938 84 34 0.0 4.0 0.00 0.00 0.00 63 1019.1
20260906123845 84 34 1.0 4.0 0.00 0.00 0.00 63 1019.1
20260906123736 84 34 1.0 4.0 0.00 0.00 0.00 63 1019.1
20260906123622 84 34 2.0 4.0 0.00 0.00 0.00 62 1019.1
20260906123445 84 79 2.0 4.0 0.00 0.00 0.00 62 1019.1
20260906123434 84 117 2.0 4.0 0.00 0.00 0.00 62 1019.1
20260906123224 83 89 2.0 4.0 0.00 0.00 0.00 62 1019.1
20260906123049 83 53 1.0 4.0 0.00 0.00 0.00 62 1019.1
20260906122939 83 101 2.0 4.0 0.00 0.00 0.00 61 1019.1
20260906122828 83 77 3.0 4.0 0.00 0.00 0.00 61 1019.1
20260906122641 83 44 1.0 3.0 0.00 0.00 0.00 64 1019.1
20260906122456 83 329 0.0 1.0 0.00 0.00 0.00 64 1019.1
20260906122036 83 329 0.0 3.0 0.00 0.00 0.00 65 1019.2
20260906121954 83 329 0.0 3.0 0.00 0.00 0.00 65 1019.2
20260906121927 83 329 0.0 3.0 0.00 0.00 0.00 65 1019.2
20260906121823 82 329 0.0 3.0 0.00 0.00 0.00 65 1019.3
20260906121650 82 329 2.0 3.0 0.00 0.00 0.00 64 1019.2
20260906121546 82 320 1.0 3.0 0.00 0.00 0.00 64 1019.3
20260906121100 82 55 2.0 3.0 0.00 0.00 0.00 62 1019.3
20260906120640 82 55 2.0 3.0 0.00 0.00 0.00 62 1019.3
20260906120448 82 55 0.0 2.0 0.00 0.00 0.00 63 1019.3
20260906120318 81 177 0.0 2.0 0.00 0.00 0.00 63 1019.3
20260906120215 81 177 1.0 3.0 0.00 0.00 0.00 63 1019.4
20260906120024 81 76 1.0 3.0 0.00 0.00 0.00 63 1019.4
20260906115505 80 147 1.0 3.0 0.00 0.00 0.00 67 1019.3
20260906115017 80 259 0.0 3.0 0.00 0.00 0.00 70 1019.4
20260906114920 80 259 1.0 3.0 0.00 0.00 0.00 70 1019.4
20260906114847 80 259 0.0 3.0 0.00 0.00 0.00 70 1019.3
20260906114342 80 255 1.0 3.0 0.00 0.00 0.00 70 1019.4
20260906114119 80 255 1.0 3.0 0.00 0.00 0.00 71 1019.4
20260906113955 80 96 0.0 1.0 0.00 0.00 0.00 72 1019.3
20260906113908 80 96 0.0 2.0 0.00 0.00 0.00 72 1019.3
20260906113751 79 96 0.0 3.0 0.00 0.00 0.00 72 1019.4
20260906113647 79 155 0.0 3.0 0.00 0.00 0.00 72 1019.4
20260906113511 79 155 0.0 3.0 0.00 0.00 0.00 72 1019.4
20260906113402 79 53 0.0 3.0 0.00 0.00 0.00 72 1019.3
20260906113244 79 53 1.0 3.0 0.00 0.00 0.00 72 1019.2
20260906112547 79 56 0.0 1.0 0.00 0.00 0.00 72 1019.2
20260906112432 79 56 0.0 2.0 0.00 0.00 0.00 72 1019.3
20260906112306 78 56 0.0 2.0 0.00 0.00 0.00 72 1019.3
20260906112159 78 56 0.0 2.0 0.00 0.00 0.00 73 1019.3
20260906112107 78 56 0.0 2.0 0.00 0.00 0.00 73 1019.3
20260906111723 78 56 1.0 3.0 0.00 0.00 0.00 74 1019.4
20260906111555 78 59 0.0 3.0 0.00 0.00 0.00 74 1019.4
20260906111443 78 91 1.0 3.0 0.00 0.00 0.00 75 1019.4
20260906111004 78 160 2.0 3.0 0.00 0.00 0.00 76 1019.7
20260906110911 78 157 0.0 3.0 0.00 0.00 0.00 76 1019.6
20260906110744 78 194 0.0 2.0 0.00 0.00 0.00 75 1019.5
20260906110414 78 194 0.0 4.0 0.00 0.00 0.00 75 1019.3
20260906110214 78 194 0.0 4.0 0.00 0.00 0.00 76 1019.1
20260906105745 78 230 0.0 4.0 0.00 0.00 0.00 77 1019.4
20260906105602 78 163 0.0 4.0 0.00 0.00 0.00 76 1019.3
20260906105036 78 90 1.0 4.0 0.00 0.00 0.00 76 1018.7
20260906104809 78 311 1.0 2.0 0.00 0.00 0.00 77 1018.7
20260906104659 77 311 0.0 2.0 0.00 0.00 0.00 77 1019.0
20260906104554 77 288 0.0 3.0 0.00 0.00 0.00 77 1019.1
20260906104443 77 288 0.0 3.0 0.00 0.00 0.00 77 1019.2
20260906104351 77 288 0.0 3.0 0.00 0.00 0.00 77 1019.2
20260906104219 77 288 0.0 3.0 0.00 0.00 0.00 77 1019.4
20260906104019 77 288 1.0 3.0 0.00 0.00 0.00 77 1019.4
20260906103901 77 288 1.0 3.0 0.00 0.00 0.00 78 1019.6
20260906103751 77 310 0.0 0.0 0.00 0.00 0.00 78 1019.5
20260906103726 77 310 0.0 0.0 0.00 0.00 0.00 78 1019.4
20260906103535 77 310 0.0 1.0 0.00 0.00 0.00 78 1019.5
20260906103422 77 310 0.0 2.0 0.00 0.00 0.00 79 1019.5
20260906103238 77 310 0.0 2.0 0.00 0.00 0.00 79 1019.7
20260906103142 77 310 0.0 2.0 0.00 0.00 0.00 79 1019.8
20260906103040 77 310 0.0 2.0 0.00 0.00 0.00 78 1019.7
20260906103018 77 310 0.0 2.0 0.00 0.00 0.00 78 1019.6
20260906102901 77 310 1.0 2.0 0.00 0.00 0.00 79 1019.5
20260906102731 76 310 1.0 2.0 0.00 0.00 0.00 79 1019.3
20260906102040 76 293 0.0 4.0 0.00 0.00 0.00 80 1019.3
20260906101932 76 293 0.0 4.0 0.00 0.00 0.00 79 1019.5
20260906101911 76 293 0.0 4.0 0.00 0.00 0.00 79 1019.4
20260906101421 76 293 2.0 4.0 0.00 0.00 0.00 79 1019.6
20260906101324 76 293 2.0 4.0 0.00 0.00 0.00 79 1019.7
20260906101144 76 279 1.0 3.0 0.00 0.00 0.00 79 1019.9
20260906101015 76 281 0.0 3.0 0.00 0.00 0.00 79 1019.9
20260906100950 76 281 0.0 3.0 0.00 0.00 0.00 79 1020.0
20260906100531 76 281 1.0 3.0 0.00 0.00 0.00 79 1019.9
20260906100509 76 281 1.0 3.0 0.00 0.00 0.00 79 1019.8
20260906100405 76 281 0.0 3.0 0.00 0.00 0.00 80 1019.9
20260906100303 76 281 0.0 2.0 0.00 0.00 0.00 80 1020.1
20260906100159 75 281 0.0 2.0 0.00 0.00 0.00 80 1019.9
20260906095821 75 281 1.0 2.0 0.00 0.00 0.00 80 1019.7
20260906095636 75 281 0.0 2.0 0.00 0.00 0.00 79 1019.6
20260906095309 75 281 0.0 2.0 0.00 0.00 0.00 79 1019.6
20260906095212 75 281 1.0 3.0 0.00 0.00 0.00 79 1019.7
20260906094826 75 281 1.0 3.0 0.00 0.00 0.00 80 1019.8
20260906094631 75 281 0.0 3.0 0.00 0.00 0.00 80 1019.9
20260906094534 75 281 0.0 3.0 0.00 0.00 0.00 80 1019.9
20260906094518 75 281 1.0 3.0 0.00 0.00 0.00 80 1019.8
20260906094430 75 281 1.0 3.0 0.00 0.00 0.00 80 1019.7
20260906094300 74 281 0.0 2.0 0.00 0.00 0.00 81 1019.8
20260906094144 74 257 0.0 2.0 0.00 0.00 0.00 81 1019.9
20260906094135 74 257 0.0 2.0 0.00 0.00 0.00 81 1019.9
20260906094020 74 257 0.0 3.0 0.00 0.00 0.00 80 1019.8
20260906093841 74 257 0.0 3.0 0.00 0.00 0.00 81 1020.0
20260906093751 74 159 0.0 3.0 0.00 0.00 0.00 81 1020.0
20260906093636 74 57 0.0 3.0 0.00 0.00 0.00 81 1019.7
20260906093524 74 57 1.0 3.0 0.00 0.00 0.00 80 1019.6
20260906093104 74 88 2.0 3.0 0.00 0.00 0.00 81 1019.9
20260906092855 74 180 1.0 3.0 0.00 0.00 0.00 80 1019.7
20260906092732 74 53 2.0 3.0 0.00 0.00 0.00 80 1019.4
20260906092558 74 53 0.0 3.0 0.00 0.00 0.00 81 1019.6
20260906092511 74 244 0.0 0.0 0.00 0.00 0.00 81 1019.9
20260906092119 74 244 0.0 4.0 0.00 0.00 0.00 80 1020.0
20260906091958 74 244 0.0 4.0 0.00 0.00 0.00 81 1019.9
20260906091628 74 244 0.0 4.0 0.00 0.00 0.00 80 1019.9
20260906091217 74 244 2.0 4.0 0.00 0.00 0.00 80 1020.0
20260906091125 73 244 1.0 4.0 0.00 0.00 0.00 80 1020.0
20260906090950 73 78 0.0 3.0 0.00 0.00 0.00 80 1019.9
20260906090842 73 78 1.0 3.0 0.00 0.00 0.00 81 1019.7
20260906090821 73 78 1.0 3.0 0.00 0.00 0.00 81 1019.8
20260906090313 73 241 1.0 4.0 0.00 0.00 0.00 80 1020.0
20260906090243 73 241 1.0 4.0 0.00 0.00 0.00 80 1019.9
20260906090139 73 56 1.0 4.0 0.00 0.00 0.00 80 1019.7
20260906090010 73 84 2.0 4.0 0.00 0.00 0.00 80 1019.4
20260906085852 73 53 3.0 5.0 0.00 0.00 0.00 80 1019.4
20260906085827 73 53 3.0 5.0 0.00 0.00 0.00 80 1019.3
20260906085255 73 82 2.0 5.0 0.00 0.00 0.00 81 1019.3
20260906085227 73 57 2.0 5.0 0.00 0.00 0.00 81 1019.3
20260906084349 72 71 2.0 4.0 0.00 0.00 0.00 81 1019.3
20260906084320 72 68 2.0 4.0 0.00 0.00 0.00 81 1019.3
20260906084044 72 57 1.0 3.0 0.00 0.00 0.00 81 1019.4
20260906083909 72 57 2.0 3.0 0.00 0.00 0.00 81 1019.6
20260906083838 72 57 1.0 3.0 0.00 0.00 0.00 81 1019.4
20260906083256 72 57 1.0 3.0 0.00 0.00 0.00 81 1019.4
20260906082906 72 58 0.0 3.0 0.00 0.00 0.00 81 1019.4
20260906082717 72 87 0.0 2.0 0.00 0.00 0.00 81 1019.6
20260906082605 72 87 1.0 3.0 0.00 0.00 0.00 81 1019.6
20260906082528 72 87 1.0 3.0 0.00 0.00 0.00 81 1019.7
20260906082345 72 69 0.0 3.0 0.00 0.00 0.00 81 1019.7
20260906082235 72 73 0.0 3.0 0.00 0.00 0.00 81 1019.9
20260906082128 72 73 0.0 3.0 0.00 0.00 0.00 81 1019.9
20260906081927 71 73 1.0 3.0 0.00 0.00 0.00 80 1019.7
20260906081807 71 85 2.0 3.0 0.00 0.00 0.00 81 1019.5
20260906081722 71 85 1.0 3.0 0.00 0.00 0.00 81 1019.4
20260906081528 71 57 0.0 3.0 0.00 0.00 0.00 81 1019.4
20260906081419 71 145 0.0 0.0 0.00 0.00 0.00 81 1019.5
20260906081304 71 145 0.0 0.0 0.00 0.00 0.00 81 1019.6
20260906081211 71 145 0.0 0.0 0.00 0.00 0.00 81 1019.7
20260906080824 71 145 0.0 0.0 0.00 0.00 0.00 82 1019.7
20260906075933 71 145 0.0 0.0 0.00 0.00 0.00 81 1019.8
20260906075734 71 145 0.0 0.0 0.00 0.00 0.00 82 1019.7
20260906075638 71 145 0.0 0.0 0.00 0.00 0.00 82 1019.7
20260906075335 71 145 0.0 0.0 0.00 0.00 0.00 82 1019.8
20260906075200 81 73 3.0 5.0 0.00 0.00 0.00 49 1019.8
20260906075132 82 82 2.0 4.0 0.00 0.00 0.00 49 1019.9
20260906075045 71 145 0.0 0.0 0.00 0.00 0.00 82 1019.7
20260906074917 71 145 0.0 0.0 0.00 0.00 0.00 82 1019.6
20260906074725 71 145 0.0 0.0 0.00 0.00 0.00 82 1019.6
20260906074622 71 145 0.0 0.0 0.00 0.00 0.00 82 1019.6
20260906074558 71 145 0.0 0.0 0.00 0.00 0.00 82 1019.6
20260906074435 71 145 0.0 0.0 0.00 0.00 0.00 82 1019.6
20260906074340 71 145 0.0 0.0 0.00 0.00 0.00 82 1019.7
20260906074250 70 145 0.0 0.0 0.00 0.00 0.00 82 1019.7
20260906074237 71 145 0.0 0.0 0.00 0.00 0.00 82 1019.7
20260906074033 70 145 0.0 0.0 0.00 0.00 0.00 82 1019.8
20260906073942 70 145 0.0 0.0 0.00 0.00 0.00 82 1019.7
20260906073927 70 145 0.0 0.0 0.00 0.00 0.00 82 1019.7
20260906073547 70 145 0.0 0.0 0.00 0.00 0.00 82 1019.7
20260906073453 70 145 0.0 0.0 0.00 0.00 0.00 82 1019.7
20260906073410 70 145 0.0 0.0 0.00 0.00 0.00 82 1019.6
20260906073320 70 145 0.0 0.0 0.00 0.00 0.00 82 1019.6
20260906073253 70 145 0.0 0.0 0.00 0.00 0.00 82 1019.6
20260906073214 70 145 0.0 2.0 0.00 0.00 0.00 82 1019.6
20260906073123 70 145 0.0 3.0 0.00 0.00 0.00 82 1019.6
20260906072824 70 145 0.0 3.0 0.00 0.00 0.00 82 1019.7
20260906072705 70 145 0.0 4.0 0.00 0.00 0.00 83 1019.6
20260906072551 70 145 1.0 4.0 0.00 0.00 0.00 83 1019.6
20260906071800 70 74 2.0 4.0 0.00 0.00 0.00 83 1019.5
20260906071645 70 76 2.0 4.0 0.00 0.00 0.00 83 1019.4
20260906071620 70 91 2.0 4.0 0.00 0.00 0.00 83 1019.4
20260906071435 70 104 1.0 4.0 0.00 0.00 0.00 83 1019.6
20260906071241 69 124 1.0 4.0 0.00 0.00 0.00 84 1019.5
20260906071214 70 151 1.0 4.0 0.00 0.00 0.00 84 1019.6
20260906071112 69 124 2.0 4.0 0.00 0.00 0.00 84 1019.6
20260906070929 69 136 2.0 4.0 0.00 0.00 0.00 84 1019.6
20260906070821 69 144 2.0 3.0 0.00 0.00 0.00 84 1019.5
20260906070746 69 111 2.0 3.0 0.00 0.00 0.00 84 1019.5
20260906070608 69 116 1.0 3.0 0.00 0.00 0.00 84 1019.5
20260906070429 69 124 2.0 3.0 0.00 0.00 0.00 84 1019.5
20260906065631 69 103 2.0 3.0 0.00 0.00 0.00 84 1019.4
20260906065532 69 127 2.0 3.0 0.00 0.00 0.00 85 1019.4
20260906064727 69 51 0.0 3.0 0.00 0.00 0.00 85 1019.4
20260906064546 69 51 0.0 3.0 0.00 0.00 0.00 85 1019.4
20260906064424 69 51 2.0 3.0 0.00 0.00 0.00 85 1019.4
20260906064337 69 51 2.0 3.0 0.00 0.00 0.00 85 1019.5
20260906063530 69 83 0.0 2.0 0.00 0.00 0.00 85 1019.4
20260906063408 69 83 0.0 2.0 0.00 0.00 0.00 84 1019.5
20260906063317 69 83 0.0 2.0 0.00 0.00 0.00 84 1019.6
20260906063254 69 83 0.0 2.0 0.00 0.00 0.00 84 1019.6
20260906063226 69 83 0.0 2.0 0.00 0.00 0.00 84 1019.6
20260906062552 69 83 0.0 2.0 0.00 0.00 0.00 85 1019.6
20260906062358 69 84 0.0 0.0 0.00 0.00 0.00 85 1019.6
20260906062300 69 84 0.0 0.0 0.00 0.00 0.00 85 1019.6
20260906062231 69 84 0.0 2.0 0.00 0.00 0.00 85 1019.6
20260906062216 69 84 0.0 2.0 0.00 0.00 0.00 85 1019.6
20260906062104 69 84 0.0 2.0 0.00 0.00 0.00 85 1019.6
20260906061744 69 84 0.0 2.0 0.00 0.00 0.00 85 1019.5
20260906061621 69 84 0.0 2.0 0.00 0.00 0.00 85 1019.5
20260906061513 69 84 0.0 2.0 0.00 0.00 0.00 85 1019.4
20260906061436 69 63 0.0 2.0 0.00 0.00 0.00 85 1019.4
20260906061010 69 63 0.0 2.0 0.00 0.00 0.00 84 1019.4
20260906060641 69 63 0.0 2.0 0.00 0.00 0.00 84 1019.4
20260906060424 69 63 1.0 2.0 0.00 0.00 0.00 84 1019.4
20260906060258 69 63 1.0 2.0 0.00 0.00 0.00 83 1019.3
20260906060212 69 63 1.0 2.0 0.00 0.00 0.00 83 1019.3
20260906055332 69 162 0.0 0.0 0.00 0.00 0.00 83 1019.4
20260906055237 69 162 0.0 0.0 0.00 0.00 0.00 83 1019.4
20260906055002 69 162 0.0 0.0 0.00 0.00 0.00 83 1019.4
20260906054920 69 162 0.0 0.0 0.00 0.00 0.00 83 1019.3
20260906054853 69 162 0.0 0.0 0.00 0.00 0.00 83 1019.4
20260906054723 69 162 0.0 0.0 0.00 0.00 0.00 83 1019.4
20260906054625 69 162 0.0 0.0 0.00 0.00 0.00 83 1019.4
20260906054543 69 162 0.0 0.0 0.00 0.00 0.00 83 1019.4
20260906054346 69 162 0.0 0.0 0.00 0.00 0.00 83 1019.4
20260906054322 69 162 0.0 0.0 0.00 0.00 0.00 83 1019.3
20260906053638 69 162 0.0 0.0 0.00 0.00 0.00 83 1019.5
20260906053337 69 162 0.0 0.0 0.00 0.00 0.00 83 1019.4
20260906052833 69 162 0.0 0.0 0.00 0.00 0.00 83 1019.5
20260906052747 69 162 0.0 0.0 0.00 0.00 0.00 83 1019.5
20260906052550 69 162 0.0 0.0 0.00 0.00 0.00 83 1019.5
20260906052417 82 61 4.0 7.0 0.00 0.00 0.00 48 1019.8
20260906052342 69 162 0.0 0.0 0.00 0.00 0.00 83 1019.6
20260906052327 82 59 3.0 5.0 0.00 0.00 0.00 48 1019.6
20260906052300 82 53 2.0 4.0 0.00 0.00 0.00 48 1019.7
20260906052212 69 162 0.0 0.0 0.00 0.00 0.00 83 1019.5
20260906051938 69 162 0.0 0.0 0.00 0.00 0.00 83 1019.5
20260906051902 69 162 0.0 0.0 0.00 0.00 0.00 83 1019.4
20260906051838 69 162 0.0 0.0 0.00 0.00 0.00 83 1019.5
20260906051643 69 162 0.0 0.0 0.00 0.00 0.00 83 1019.5
20260906051530 69 162 0.0 0.0 0.00 0.00 0.00 83 1019.5
20260906051431 69 162 0.0 0.0 0.00 0.00 0.00 83 1019.6
20260906051022 69 162 0.0 0.0 0.00 0.00 0.00 83 1019.5
20260906050956 69 162 0.0 0.0 0.00 0.00 0.00 83 1019.4
20260906050344 69 162 0.0 1.0 0.00 0.00 0.00 83 1019.3
20260906050216 69 162 0.0 1.0 0.00 0.00 0.00 83 1019.3
20260906045937 69 162 0.0 1.0 0.00 0.00 0.00 83 1019.3
20260906045847 69 162 0.0 1.0 0.00 0.00 0.00 83 1019.3
20260906045810 69 162 0.0 1.0 0.00 0.00 0.00 83 1019.4
20260906045620 69 162 0.0 0.0 0.00 0.00 0.00 83 1019.4
20260906045458 69 162 0.0 0.0 0.00 0.00 0.00 83 1019.3
20260906044940 69 162 0.0 0.0 0.00 0.00 0.00 83 1019.3
20260906044843 69 162 0.0 0.0 0.00 0.00 0.00 82 1019.3
20260906044815 69 162 0.0 0.0 0.00 0.00 0.00 82 1019.4
20260906044636 69 162 0.0 0.0 0.00 0.00 0.00 82 1019.4
20260906044530 69 162 0.0 0.0 0.00 0.00 0.00 82 1019.3
20260906044449 69 162 0.0 0.0 0.00 0.00 0.00 82 1019.4
20260906044229 69 162 0.0 0.0 0.00 0.00 0.00 82 1019.3
20260906043935 69 162 0.0 0.0 0.00 0.00 0.00 82 1019.3
20260906043810 69 162 0.0 1.0 0.00 0.00 0.00 82 1019.3
20260906043659 70 162 0.0 1.0 0.00 0.00 0.00 82 1019.3
20260906043620 70 162 0.0 2.0 0.00 0.00 0.00 82 1019.3
20260906043424 70 162 0.0 2.0 0.00 0.00 0.00 82 1019.5
20260906043352 70 162 0.0 2.0 0.00 0.00 0.00 81 1019.3
20260906043319 70 162 0.0 2.0 0.00 0.00 0.00 81 1019.5
20260906043202 70 162 0.0 2.0 0.00 0.00 0.00 81 1019.5
20260906042821 70 162 1.0 2.0 0.00 0.00 0.00 80 1019.4
20260906042720 70 162 1.0 2.0 0.00 0.00 0.00 80 1019.4
20260906042541 70 162 1.0 3.0 0.00 0.00 0.00 79 1019.4
20260906042500 70 162 1.0 3.0 0.00 0.00 0.00 79 1019.4
20260906042058 70 154 0.0 3.0 0.00 0.00 0.00 79 1019.3
20260906041710 70 109 1.0 3.0 0.00 0.00 0.00 79 1019.1
20260906041600 70 109 2.0 3.0 0.00 0.00 0.00 79 1019.1
20260906041344 70 136 2.0 3.0 0.00 0.00 0.00 79 1019.1
20260906041234 70 147 2.0 3.0 0.00 0.00 0.00 79 1019.2
20260906041200 70 150 2.0 3.0 0.00 0.00 0.00 79 1019.1
20260906040618 70 53 1.0 2.0 0.00 0.00 0.00 79 1019.1
20260906040552 70 53 0.0 2.0 0.00 0.00 0.00 79 1019.1
20260906040451 70 53 1.0 2.0 0.00 0.00 0.00 79 1019.0
20260906040256 70 53 1.0 2.0 0.00 0.00 0.00 79 1019.0
20260906040157 70 53 0.0 2.0 0.00 0.00 0.00 79 1019.0
20260906040131 70 53 0.0 1.0 0.00 0.00 0.00 79 1019.0
20260906035926 70 53 0.0 1.0 0.00 0.00 0.00 78 1019.1
20260906035836 71 53 0.0 2.0 0.00 0.00 0.00 78 1019.2
20260906035528 71 53 0.0 2.0 0.00 0.00 0.00 78 1019.2
20260906035255 71 53 0.0 2.0 0.00 0.00 0.00 78 1019.2
20260906035212 71 53 0.0 2.0 0.00 0.00 0.00 77 1019.2
20260906035132 71 53 0.0 2.0 0.00 0.00 0.00 77 1019.2
20260906035035 71 53 1.0 3.0 0.00 0.00 0.00 77 1019.3
20260906034936 71 53 1.0 4.0 0.00 0.00 0.00 77 1019.2
20260906034621 71 53 1.0 4.0 0.00 0.00 0.00 76 1019.0
20260906034457 71 53 2.0 4.0 0.00 0.00 0.00 77 1019.0
20260906034137 71 53 2.0 5.0 0.00 0.00 0.00 77 1019.0
20260906033921 71 63 2.0 6.0 0.00 0.00 0.00 77 1019.0
20260906033747 71 75 3.0 6.0 0.00 0.00 0.00 77 1019.0
20260906033742 71 73 3.0 6.0 0.00 0.00 0.00 77 1019.0
20260906033556 71 78 3.0 6.0 0.00 0.00 0.00 77 1019.0
20260906033259 71 84 4.0 6.0 0.00 0.00 0.00 78 1019.0
20260906033221 71 76 4.0 6.0 0.00 0.00 0.00 78 1019.0
20260906033108 71 86 3.0 4.0 0.00 0.00 0.00 78 1019.0
20260906032819 70 82 2.0 4.0 0.00 0.00 0.00 78 1019.1
20260906032657 70 78 0.0 3.0 0.00 0.00 0.00 78 1019.1
20260906032635 70 81 0.0 3.0 0.00 0.00 0.00 78 1019.1
20260906032109 71 266 0.0 0.0 0.00 0.00 0.00 78 1019.3
20260906032050 71 266 0.0 0.0 0.00 0.00 0.00 78 1019.3
20260906031907 71 266 0.0 0.0 0.00 0.00 0.00 77 1019.4
20260906031306 71 266 0.0 2.0 0.00 0.00 0.00 77 1019.6
20260906031034 71 266 0.0 2.0 0.00 0.00 0.00 78 1019.7
20260906030957 71 266 0.0 2.0 0.00 0.00 0.00 78 1019.6
20260906030752 71 266 1.0 2.0 0.00 0.00 0.00 77 1019.8
20260906030700 71 266 1.0 2.0 0.00 0.00 0.00 77 1019.7
20260906030639 71 266 1.0 2.0 0.00 0.00 0.00 77 1019.7
20260906030534 71 266 0.0 2.0 0.00 0.00 0.00 77 1019.7
20260906030248 71 266 0.0 3.0 0.00 0.00 0.00 76 1019.6
20260906030211 71 266 0.0 3.0 0.00 0.00 0.00 76 1019.6
20260906030106 72 266 0.0 3.0 0.00 0.00 0.00 76 1019.6
20260906030009 71 266 1.0 3.0 0.00 0.00 0.00 76 1019.6
20260906025938 72 266 1.0 3.0 0.00 0.00 0.00 76 1019.6
20260906025835 72 269 2.0 3.0 0.00 0.00 0.00 76 1019.6
20260906025700 72 276 0.0 3.0 0.00 0.00 0.00 76 1019.7
20260906025639 72 265 0.0 3.0 0.00 0.00 0.00 76 1019.7
20260906025217 72 258 2.0 3.0 0.00 0.00 0.00 75 1019.6
20260906024843 72 252 2.0 3.0 0.00 0.00 0.00 75 1019.7
20260906024705 72 256 1.0 2.0 0.00 0.00 0.00 75 1019.7
20260906024541 72 225 1.0 2.0 0.00 0.00 0.00 75 1019.7
20260906024512 72 225 1.0 2.0 0.00 0.00 0.00 74 1019.8
20260906023743 72 198 1.0 2.0 0.00 0.00 0.00 73 1019.4
20260906023717 72 134 0.0 1.0 0.00 0.00 0.00 73 1019.4
20260906023606 72 121 0.0 2.0 0.00 0.00 0.00 73 1019.3
20260906023516 73 121 0.0 2.0 0.00 0.00 0.00 73 1019.3
20260906023442 73 121 0.0 2.0 0.00 0.00 0.00 73 1019.3
20260906023352 73 121 0.0 2.0 0.00 0.00 0.00 73 1019.2
20260906022919 73 121 1.0 2.0 0.00 0.00 0.00 73 1019.2
20260906022537 73 155 0.0 2.0 0.00 0.00 0.00 73 1019.3
20260906022117 73 155 0.0 2.0 0.00 0.00 0.00 72 1019.4
20260906022040 73 155 0.0 3.0 0.00 0.00 0.00 72 1019.4
20260906021833 73 155 1.0 4.0 0.00 0.00 0.00 71 1019.3
20260906021722 73 146 0.0 6.0 0.00 0.00 0.00 71 1019.2
20260906021708 73 136 0.0 6.0 0.00 0.00 0.00 71 1019.3
20260906021554 73 136 0.0 6.0 0.00 0.00 0.00 71 1019.2
20260906021314 73 136 2.0 6.0 0.00 0.00 0.00 70 1019.3
20260906021227 73 122 2.0 6.0 0.00 0.00 0.00 71 1019.3
20260906021129 73 108 3.0 6.0 0.00 0.00 0.00 71 1019.3
20260906020828 73 90 4.0 6.0 0.00 0.00 0.00 71 1019.1
20260906020649 73 44 2.0 4.0 0.00 0.00 0.00 72 1019.1
20260906020641 72 49 2.0 4.0 0.00 0.00 0.00 72 1019.1
20260906020458 72 9 2.0 4.0 0.00 0.00 0.00 71 1019.2
20260906020230 72 9 0.0 4.0 0.00 0.00 0.00 72 1019.2
20260906020145 72 350 0.0 1.0 0.00 0.00 0.00 71 1019.3
20260906020110 72 350 0.0 1.0 0.00 0.00 0.00 71 1019.3
20260906015920 72 350 0.0 2.0 0.00 0.00 0.00 71 1019.3
20260906015803 72 350 0.0 2.0 0.00 0.00 0.00 72 1019.2
20260906015627 72 350 0.0 3.0 0.00 0.00 0.00 72 1019.2
20260906015456 72 350 1.0 3.0 0.00 0.00 0.00 72 1019.1
20260906015414 72 350 1.0 3.0 0.00 0.00 0.00 72 1019.2
20260906015335 72 350 1.0 3.0 0.00 0.00 0.00 72 1019.1
20260906015201 72 350 1.0 3.0 0.00 0.00 0.00 72 1019.3
20260906015050 72 350 1.0 3.0 0.00 0.00 0.00 72 1019.3
20260906014709 72 350 2.0 3.0 0.00 0.00 0.00 72 1019.4
20260906014534 72 350 0.0 3.0 0.00 0.00 0.00 72 1019.4
20260906014452 72 350 0.0 4.0 0.00 0.00 0.00 72 1019.4
20260906014111 72 350 1.0 4.0 0.00 0.00 0.00 72 1019.4
20260906013945 72 350 1.0 4.0 0.00 0.00 0.00 72 1019.4
20260906013828 72 350 2.0 4.0 0.00 0.00 0.00 71 1019.4
20260906013404 72 348 3.0 4.0 0.00 0.00 0.00 71 1019.5
20260906013317 72 346 2.0 4.0 0.00 0.00 0.00 71 1019.6
20260906013134 72 338 2.0 3.0 0.00 0.00 0.00 71 1019.6
20260906013002 72 338 2.0 3.0 0.00 0.00 0.00 71 1019.5
20260906012840 72 336 2.0 3.0 0.00 0.00 0.00 71 1019.6
20260906012704 72 336 0.0 2.0 0.00 0.00 0.00 71 1019.7
20260906012630 72 336 0.0 2.0 0.00 0.00 0.00 71 1019.7
20260906012209 72 336 1.0 4.0 0.00 0.00 0.00 71 1019.9
20260906012056 73 336 1.0 4.0 0.00 0.00 0.00 71 1019.8
20260906011552 73 336 2.0 4.0 0.00 0.00 0.00 70 1019.5
20260906011208 73 331 3.0 4.0 0.00 0.00 0.00 69 1019.4
20260906010539 73 22 2.0 4.0 0.00 0.00 0.00 69 1019.3
20260906010419 73 46 1.0 3.0 0.00 0.00 0.00 69 1019.4
20260906010159 73 47 1.0 3.0 0.00 0.00 0.00 69 1019.4
20260906010104 73 48 1.0 3.0 0.00 0.00 0.00 69 1019.5
20260906010016 73 48 1.0 3.0 0.00 0.00 0.00 68 1019.4
20260906005839 73 49 0.0 1.0 0.00 0.00 0.00 68 1019.5
20260906005639 73 49 0.0 1.0 0.00 0.00 0.00 67 1019.6
20260906005155 73 49 1.0 1.0 0.00 0.00 0.00 68 1019.8
20260906005121 73 49 0.0 3.0 0.00 0.00 0.00 68 1019.8
20260906005034 73 49 0.0 3.0 0.00 0.00 0.00 68 1019.8
20260906004929 73 49 0.0 3.0 0.00 0.00 0.00 67 1019.7
20260906004727 73 49 0.0 3.0 0.00 0.00 0.00 67 1019.7
20260906004357 73 49 0.0 3.0 0.00 0.00 0.00 67 1019.6
20260906004137 73 49 1.0 3.0 0.00 0.00 0.00 67 1019.6
20260906004044 73 49 1.0 3.0 0.00 0.00 0.00 67 1019.6
20260906003623 73 49 1.0 3.0 0.00 0.00 0.00 68 1019.6
20260906003435 73 49 0.0 3.0 0.00 0.00 0.00 67 1019.6
20260906003330 73 49 1.0 3.0 0.00 0.00 0.00 67 1019.7
20260906003114 73 49 1.0 2.0 0.00 0.00 0.00 67 1019.8
20260906003041 73 49 2.0 3.0 0.00 0.00 0.00 67 1019.8
20260906003005 73 49 1.0 3.0 0.00 0.00 0.00 67 1019.8
20260906002843 73 49 0.0 3.0 0.00 0.00 0.00 67 1019.7
20260906002634 73 49 0.0 3.0 0.00 0.00 0.00 67 1019.7
20260906002547 74 49 1.0 3.0 0.00 0.00 0.00 66 1019.8
20260906002129 74 49 1.0 2.0 0.00 0.00 0.00 66 1019.8
20260906001735 74 49 0.0 2.0 0.00 0.00 0.00 66 1019.9
20260906001602 74 49 0.0 2.0 0.00 0.00 0.00 66 1020.0
20260906001244 74 49 0.0 2.0 0.00 0.00 0.00 66 1020.1
20260906001011 73 49 1.0 2.0 0.00 0.00 0.00 66 1020.0
20260906000856 73 49 1.0 2.0 0.00 0.00 0.00 65 1019.9
20260906000825 74 49 1.0 2.0 0.00 0.00 0.00 66 1019.9
20260906000627 73 51 0.0 1.0 0.00 0.00 0.00 66 1019.9
20260906000348 73 88 0.0 0.0 0.00 0.00 0.00 66 1019.8
20260905235835 73 88 0.0 0.0 0.00 0.00 0.00 66 1019.9
20260905235741 73 88 0.0 0.0 0.00 0.00 0.00 66 1019.9
20260905235716 74 88 0.0 0.0 0.00 0.00 0.00 67 1019.9
20260905235549 74 88 0.0 0.0 0.00 0.00 0.00 68 1019.7
20260905235322 74 88 0.0 0.0 0.00 0.00 0.00 69 1019.7
20260905235207 74 88 0.0 0.0 0.00 0.00 0.00 68 1019.7
20260905235011 74 88 0.0 0.0 0.00 0.00 0.00 67 1019.8
20260905234932 74 88 0.0 0.0 0.00 0.00 0.00 67 1019.8
20260905234842 74 88 0.0 2.0 0.00 0.00 0.00 67 1020.0
20260905234713 75 88 0.0 2.0 0.00 0.00 0.00 66 1020.0
20260905234521 75 88 0.0 2.0 0.00 0.00 0.00 66 1020.0
20260905234404 75 88 0.0 2.0 0.00 0.00 0.00 65 1020.1
20260905234150 75 88 0.0 2.0 0.00 0.00 0.00 64 1020.0
20260905234116 75 88 0.0 2.0 0.00 0.00 0.00 63 1020.0
20260905234025 75 88 0.0 0.0 0.00 0.00 0.00 63 1020.0
20260905233907 75 88 0.0 1.0 0.00 0.00 0.00 63 1019.9
20260905233533 76 88 0.0 1.0 0.00 0.00 0.00 62 1020.0
20260905233053 76 88 0.0 1.0 0.00 0.00 0.00 61 1020.0
20260905233018 76 88 0.0 1.0 0.00 0.00 0.00 60 1019.9
20260905232943 76 88 0.0 1.0 0.00 0.00 0.00 60 1019.9
20260905232854 76 89 0.0 0.0 0.00 0.00 0.00 60 1019.9
20260905232759 76 89 0.0 1.0 0.00 0.00 0.00 60 1020.0
20260905232044 75 89 0.0 1.0 0.00 0.00 0.00 60 1020.0
20260905232029 75 89 0.0 1.0 0.00 0.00 0.00 60 1020.0
20260905231856 76 89 0.0 1.0 0.00 0.00 0.00 61 1020.0
20260905231642 75 89 0.0 1.0 0.00 0.00 0.00 60 1020.0
20260905231539 75 59 0.0 0.0 0.00 0.00 0.00 60 1020.0
20260905231424 75 59 0.0 0.0 0.00 0.00 0.00 60 1019.9
20260905231355 75 59 0.0 0.0 0.00 0.00 0.00 60 1019.8
20260905231331 75 59 0.0 0.0 0.00 0.00 0.00 60 1019.9
20260905231224 75 59 0.0 0.0 0.00 0.00 0.00 60 1019.9
20260905231127 75 59 0.0 1.0 0.00 0.00 0.00 60 1019.9
20260905231022 75 59 0.0 2.0 0.00 0.00 0.00 60 1019.9
20260905230939 75 59 0.0 2.0 0.00 0.00 0.00 60 1019.9
20260905230908 75 59 0.0 2.0 0.00 0.00 0.00 60 1019.9
20260905230850 75 59 0.0 2.0 0.00 0.00 0.00 60 1019.9
20260905230414 75 59 1.0 2.0 0.00 0.00 0.00 60 1019.9
20260905230311 75 59 0.0 2.0 0.00 0.00 0.00 61 1020.0
20260905230137 75 137 0.0 0.0 0.00 0.00 0.00 61 1020.0
20260905230104 75 137 0.0 1.0 0.00 0.00 0.00 60 1020.0
20260905230032 75 137 0.0 1.0 0.00 0.00 0.00 60 1020.1
20260905225922 75 137 0.0 1.0 0.00 0.00 0.00 60 1020.0
20260905225828 75 137 0.0 1.0 0.00 0.00 0.00 61 1020.0
20260905225731 75 137 0.0 1.0 0.00 0.00 0.00 61 1020.0
20260905225639 75 137 0.0 1.0 0.00 0.00 0.00 61 1020.0
20260905225614 75 137 0.0 1.0 0.00 0.00 0.00 61 1019.8
20260905225526 75 137 0.0 0.0 0.00 0.00 0.00 63 1019.9
20260905225409 75 137 0.0 0.0 0.00 0.00 0.00 63 1019.9
20260905225308 75 137 0.0 0.0 0.00 0.00 0.00 61 1020.0
20260905225216 75 137 0.0 1.0 0.00 0.00 0.00 61 1020.0
20260905225102 75 137 0.0 1.0 0.00 0.00 0.00 62 1020.0
20260905224424 75 137 0.0 2.0 0.00 0.00 0.00 60 1020.0
20260905224312 75 137 0.0 2.0 0.00 0.00 0.00 61 1019.9
20260905224143 76 137 0.0 2.0 0.00 0.00 0.00 61 1019.9
20260905224032 76 137 1.0 2.0 0.00 0.00 0.00 61 1019.8
20260905223702 76 166 1.0 2.0 0.00 0.00 0.00 61 1019.9
20260905223517 76 201 0.0 1.0 0.00 0.00 0.00 60 1019.9
20260905223410 76 201 0.0 0.0 0.00 0.00 0.00 60 1019.9
20260905223406 76 201 0.0 0.0 0.00 0.00 0.00 60 1019.9
20260905223254 76 201 0.0 0.0 0.00 0.00 0.00 60 1019.9
20260905223203 76 201 0.0 1.0 0.00 0.00 0.00 60 1020.0
20260905223138 76 201 0.0 1.0 0.00 0.00 0.00 59 1020.0
20260905222748 76 201 0.0 2.0 0.00 0.00 0.00 58 1019.9
20260905222703 76 201 0.0 2.0 0.00 0.00 0.00 58 1019.9
20260905222540 76 201 0.0 2.0 0.00 0.00 0.00 58 1019.9
20260905221527 76 201 1.0 2.0 0.00 0.00 0.00 57 1019.9
20260905221423 77 201 1.0 2.0 0.00 0.00 0.00 57 1019.9
20260905221416 77 201 1.0 2.0 0.00 0.00 0.00 57 1019.8
20260905220914 77 107 0.0 0.0 0.00 0.00 0.00 57 1019.8
20260905220554 77 107 0.0 0.0 0.00 0.00 0.00 57 1019.8
20260905215922 77 107 0.0 0.0 0.00 0.00 0.00 55 1019.8
20260905215817 77 107 0.0 0.0 0.00 0.00 0.00 55 1019.9
20260905215734 78 107 0.0 1.0 0.00 0.00 0.00 55 1019.8
20260905215701 78 107 0.0 1.0 0.00 0.00 0.00 54 1019.8
20260905215646 78 107 0.0 1.0 0.00 0.00 0.00 54 1019.8
20260905215531 78 107 0.0 2.0 0.00 0.00 0.00 55 1019.8
20260905215428 78 107 0.0 2.0 0.00 0.00 0.00 55 1019.7
20260905215020 78 107 1.0 2.0 0.00 0.00 0.00 54 1019.8
20260905214947 78 107 1.0 2.0 0.00 0.00 0.00 54 1019.8
20260905214922 78 107 1.0 2.0 0.00 0.00 0.00 54 1019.8
20260905214814 78 107 2.0 2.0 0.00 0.00 0.00 54 1019.7
20260905214700 78 107 2.0 2.0 0.00 0.00 0.00 54 1019.8
20260905214531 78 107 0.0 2.0 0.00 0.00 0.00 54 1019.8
20260905214418 78 119 0.0 1.0 0.00 0.00 0.00 54 1019.9
20260905214345 78 119 0.0 1.0 0.00 0.00 0.00 54 1019.8
20260905214313 78 119 0.0 1.0 0.00 0.00 0.00 54 1020.0
20260905214131 78 119 1.0 1.0 0.00 0.00 0.00 55 1020.0
20260905214000 78 119 0.0 1.0 0.00 0.00 0.00 55 1020.0
20260905213841 78 119 0.0 1.0 0.00 0.00 0.00 55 1020.0
20260905213714 78 78 0.0 0.0 0.00 0.00 0.00 55 1019.9
20260905213631 78 78 0.0 1.0 0.00 0.00 0.00 55 1019.9
20260905213616 78 78 0.0 1.0 0.00 0.00 0.00 54 1019.9
20260905213221 78 78 0.0 1.0 0.00 0.00 0.00 53 1019.8
20260905212853 78 78 0.0 2.0 0.00 0.00 0.00 53 1019.9
20260905212755 78 78 0.0 2.0 0.00 0.00 0.00 53 1019.8
20260905212717 79 78 0.0 2.0 0.00 0.00 0.00 53 1019.9
20260905212643 79 78 0.0 3.0 0.00 0.00 0.00 53 1019.9
20260905212532 79 78 1.0 3.0 0.00 0.00 0.00 53 1019.9
20260905212215 79 78 1.0 3.0 0.00 0.00 0.00 53 1019.9
20260905212058 79 78 1.0 3.0 0.00 0.00 0.00 53 1019.9
20260905211926 79 78 2.0 4.0 0.00 0.00 0.00 52 1019.9
20260905211542 79 78 2.0 4.0 0.00 0.00 0.00 52 1019.9
20260905211414 80 79 2.0 4.0 0.00 0.00 0.00 52 1019.9
20260905211234 80 82 3.0 4.0 0.00 0.00 0.00 51 1019.9
20260905211055 80 74 3.0 4.0 0.00 0.00 0.00 51 1019.9
20260905210928 80 71 3.0 4.0 0.00 0.00 0.00 51 1019.9
20260905210834 80 76 3.0 4.0 0.00 0.00 0.00 51 1019.9
20260905210752 80 74 2.0 4.0 0.00 0.00 0.00 51 1020.0
20260905210612 80 70 2.0 3.0 0.00 0.00 0.00 50 1020.0
20260905210434 80 78 2.0 3.0 0.00 0.00 0.00 50 1020.0
20260905210324 80 74 2.0 3.0 0.00 0.00 0.00 50 1020.0
20260905210210 80 94 2.0 3.0 0.00 0.00 0.00 50 1020.0
20260905210128 80 94 1.0 2.0 0.00 0.00 0.00 50 1019.9
20260905205125 81 94 0.0 4.0 0.00 0.00 0.00 50 1020.0
20260905205000 81 94 0.0 4.0 0.00 0.00 0.00 50 1019.9
20260905204846 81 94 1.0 5.0 0.00 0.00 0.00 49 1020.0
20260905204817 81 94 1.0 5.0 0.00 0.00 0.00 49 1019.9
20260905204739 81 94 1.0 5.0 0.00 0.00 0.00 49 1019.9
20260905204613 81 79 2.0 5.0 0.00 0.00 0.00 49 1019.9
20260905204440 81 84 2.0 5.0 0.00 0.00 0.00 49 1019.9
20260905204245 81 86 3.0 5.0 0.00 0.00 0.00 49 1019.8
20260905203508 81 86 2.0 5.0 0.00 0.00 0.00 49 1019.8
20260905202935 82 76 2.0 4.0 0.00 0.00 0.00 49 1019.9
20260905202921 82 106 2.0 4.0 0.00 0.00 0.00 49 1019.8
20260905202732 82 75 1.0 4.0 0.00 0.00 0.00 49 1019.8
20260905202557 82 56 1.0 5.0 0.00 0.00 0.00 48 1019.9
20260905202509 82 56 1.0 5.0 0.00 0.00 0.00 48 1019.8
20260905202435 82 56 2.0 5.0 0.00 0.00 0.00 48 1019.8
20260905202300 82 56 2.0 5.0 0.00 0.00 0.00 47 1019.8
20260905202133 82 64 2.0 6.0 0.00 0.00 0.00 47 1019.8
20260905202116 82 70 2.0 6.0 0.00 0.00 0.00 47 1019.9
20260905202000 82 76 3.0 6.0 0.00 0.00 0.00 47 1019.8
20260905201833 82 53 3.0 7.0 0.00 0.00 0.00 47 1019.8
20260905201729 82 59 3.0 7.0 0.00 0.00 0.00 47 1019.8
20260905201646 82 84 3.0 7.0 0.00 0.00 0.00 47 1019.7
20260905201506 82 55 4.0 7.0 0.00 0.00 0.00 47 1019.8
20260905201327 82 50 4.0 7.0 0.00 0.00 0.00 48 1019.8
20260905200938 82 63 3.0 7.0 0.00 0.00 0.00 48 1019.8
20260905200801 82 57 2.0 5.0 0.00 0.00 0.00 48 1019.8
20260905200652 82 59 2.0 5.0 0.00 0.00 0.00 48 1019.7
20260905200618 82 44 3.0 5.0 0.00 0.00 0.00 48 1019.8
20260905200426 82 72 2.0 5.0 0.00 0.00 0.00 48 1019.7
20260905200301 82 44 3.0 5.0 0.00 0.00 0.00 48 1019.7
20260905200231 82 52 3.0 5.0 0.00 0.00 0.00 48 1019.7
20260905195407 82 56 2.0 4.0 0.00 0.00 0.00 49 1019.7
20260905195347 82 55 2.0 4.0 0.00 0.00 0.00 49 1019.7
20260905195204 82 46 1.0 4.0 0.00 0.00 0.00 49 1019.7
20260905195037 82 39 2.0 4.0 0.00 0.00 0.00 49 1019.6
20260905195012 82 39 1.0 4.0 0.00 0.00 0.00 49 1019.7
20260905194857 82 51 1.0 3.0 0.00 0.00 0.00 49 1019.6
20260905194726 82 51 1.0 4.0 0.00 0.00 0.00 49 1019.6
20260905194632 82 51 1.0 4.0 0.00 0.00 0.00 49 1019.6
20260905194606 83 51 1.0 4.0 0.00 0.00 0.00 49 1019.6
20260905194423 83 55 2.0 4.0 0.00 0.00 0.00 49 1019.7
20260905194307 83 57 2.0 4.0 0.00 0.00 0.00 49 1019.6
20260905194233 83 45 2.0 4.0 0.00 0.00 0.00 49 1019.6
20260905194114 83 45 2.0 4.0 0.00 0.00 0.00 49 1019.6
20260905193956 83 46 2.0 4.0 0.00 0.00 0.00 49 1019.7
20260905193846 83 46 1.0 4.0 0.00 0.00 0.00 49 1019.5
20260905193820 83 46 1.0 4.0 0.00 0.00 0.00 49 1019.6
20260905193651 83 37 1.0 3.0 0.00 0.00 0.00 49 1019.6
20260905193522 83 37 1.0 3.0 0.00 0.00 0.00 49 1019.6
20260905193403 83 39 1.0 3.0 0.00 0.00 0.00 49 1019.6
20260905193252 83 39 1.0 3.0 0.00 0.00 0.00 50 1019.6
20260905193149 83 39 1.0 4.0 0.00 0.00 0.00 50 1019.6
20260905193123 83 39 1.0 4.0 0.00 0.00 0.00 50 1019.6
20260905192951 83 38 0.0 4.0 0.00 0.00 0.00 50 1019.6
20260905192823 84 38 0.0 4.0 0.00 0.00 0.00 49 1019.6
20260905192722 84 38 1.0 4.0 0.00 0.00 0.00 50 1019.6
20260905192601 84 38 1.0 4.0 0.00 0.00 0.00 49 1019.5
20260905192451 84 47 0.0 2.0 0.00 0.00 0.00 49 1019.6
20260905192426 84 52 0.0 2.0 0.00 0.00 0.00 49 1019.6
20260905192256 85 52 1.0 2.0 0.00 0.00 0.00 49 1019.5
20260905191632 85 52 0.0 4.0 0.00 0.00 0.00 48 1019.6
20260905191223 85 52 1.0 4.0 0.00 0.00 0.00 48 1019.6
20260905191205 85 52 1.0 4.0 0.00 0.00 0.00 48 1019.5
20260905191032 85 52 1.0 4.0 0.00 0.00 0.00 48 1019.6
20260905190903 85 52 2.0 4.0 0.00 0.00 0.00 47 1019.6
20260905190759 85 52 2.0 4.0 0.00 0.00 0.00 47 1019.5
20260905190634 86 52 3.0 4.0 0.00 0.00 0.00 47 1019.5
20260905190529 86 63 2.0 4.0 0.00 0.00 0.00 47 1019.6
20260905190139 86 52 2.0 4.0 0.00 0.00 0.00 47 1019.5